Weather in Ogbomosho

Nigeria     8°08′08″N   4°14′14″E
temp.,
°C
wind,
m/s
gust,
m/s
humid.,
%
clouds,
%
prec.,
mm/h
press.,
hPa
HPBL,
m
7 august, sun
sun701:00+21ssw26915 0.0 1014163
04:00+20ssw259826 0.0 1012180
07:00+20ssw259477 0.0 1013209
10:00+25sw347350 0.0 1014660
13:00+29sw335735 0.0 10121488
16:00+28sw3464100 0.1 1009637
19:00+25sw2677100 0.2 1011225
22:00+24ssw278293 0.1 1012251
8 august, mon
mon801:00+22ssw3790100 0.1 1012359
04:00+21ssw3891100 0.0 1012463
07:00+20ssw3894100 1.0 1013429
10:00+21ssw4894100 1.6 1014444
13:00+21sw379490 2.0 1014502
16:00+24sw4577100 0.1 1012789
19:00+21wsw248836 0.1 1013112
22:00+20sw1192100 0.0 101532
9 august, tue
tue901:00+20ssw2694100 0.0 1014201
04:00+19ssw399599 0.0 1013342
07:00+19sw399340 0.0 1014340
10:00+24sw4574100 0.0 1015702
13:00+28sw336288 0.0 10131257
16:00+26sw3474100 0.1 1011553
19:00+23ssw268797 0.3 1013240
22:00+22ssw3789100 0.0 1014354
10 august, wed
wed1001:00+20ssw27969 0.0 1013278
04:00+20sw399612 0.0 1013380
07:00+19sw389747 0.0 1015402
10:00+24sw467356 0.0 1016797
13:00+27sw4463100 0.0 10141333
16:00+27sw346494 0.1 10121265
19:00+24sw2678100 0.1 1013243
22:00+22sw2885100 0.0 1014223
11 august, thu
thu1101:00+21sw388898 0.0 1014305
04:00+20sw2887100 0.0 1014311
07:00+20sw288772 0.0 1015333
10:00+24sw347096 0.0 1016701
13:00+27w2366100 0.0 10141020
16:00+25w237795 0.5 1012313
19:00+23w2387100 1.4 101356
22:00+22sw259262 0.8 1014146